Regional Weather Roundup
Issued by NWS

Home | Current Version | Previous Version | Text Only | Print | Product List | Glossary Off
Versions: 1 2 3 4 5 6 7 8 9 10 11 12 13 14 15 16 17 18 19 20 21 22 23 24 25 26 27 28 29 30 31 32 33 34 35 36 37 38 39 40 41 42 43 44 45 46 47 48 49 50

000
ASUS43 KLMK 040402
RWRKY
KENTUCKY REGIONAL WEATHER ROUNDUP
NATIONAL WEATHER SERVICE LOUISVILLE KY
1200 AM EDT WED MAY 04 2016

NOTE "FAIR" INDICATES FEW OR NO CLOUDS BELOW 12,000 FEET
WITH NO SIGNIFICANT WEATHER AND/OR OBSTRUCTIONS TO VISIBILITY.

KYZ001>023-026-027-061>063-070>075-040500-
WESTERN AND SOUTH CENTRAL KENTUCKY

CITY           SKY/WX    TMP DP  RH WIND       PRES   REMARKS
PADUCAH        PTCLDY    50  46  86 SW5       29.93F
HENDERSON      CLEAR     54  45  71 CALM      29.90F
OWENSBORO      MOCLDY    54  47  77 CALM      29.91F
HOPKINSVILLE   PTCLDY    55  46  72 W6        29.92F
BOWLING GREEN  MOCLDY    52  46  80 CALM      29.91F
GLASGOW        NOT AVBL
$$

KYZ024-025-028>034-038-045-046-053-040500-
NORTH CENTRAL KENTUCKY

CITY           SKY/WX    TMP DP  RH WIND       PRES   REMARKS
LOUISVILLE/SDF PTCLDY    55  45  68 SW5       29.88F
LOUISVILLE/LOU PTCLDY    52  46  80 CALM      29.88F
FORT KNOX      PTCLDY    49  45  87 S1        29.87F
$$

KYZ035>037-039>044-047>052-055>060-089>105-040500-
NORTHEAST KENTUCKY

CITY           SKY/WX    TMP DP  RH WIND       PRES   REMARKS
LEXINGTON      CLOUDY    53  48  83 W3        29.88F
COVINGTON      PTCLDY    50  49  96 SW3       29.85F
FRANKFORT      CLOUDY    54  47  77 CALM      29.87F
$$

KYZ054-064>069-076>088-106>120-040500-
SOUTHEAST KENTUCKY

CITY           SKY/WX    TMP DP  RH WIND       PRES   REMARKS
JACKSON        CLOUDY    54  46  74 NW3       29.87F
LONDON         CLOUDY    56  46  69 W5        29.87F
SOMERSET       NOT AVBL
MIDDLESBORO    NOT AVBL
MONTICELLO     CLOUDY    55  48  77 NW7       29.91F
$$




USA.gov is the U.S. government's official web portal to all federal, state and local government web resources and services.